Temp
5 5 5 5 5 5 5 6 5 6 6 6 6 6 6 6 6 6 6 7 7 7 7 7 7 7 7 7 7 7 7 7 7 7 7 7 7 7 7 7 7 7 7
5 5 5 5 5 5 5 5 6 6 5 6 6 6 6 6 6 7 7 7 7 7 7 7 7 7 7 7 7 7 7 7 7 7 7 7 7 7 7 7 7 7 7
5 5 5 5 5 5 5 5 6 6 5 5 6 6 6 6 6 7 6 7 7 7 7 7 7 7 7 6 6 7 7 7 7 7 7 6 7 7 7 7 7 7 7
5 5 5 5 5 5 5 5 5 6 6 6 6 6 6 7 7 7 6 6 7 7 7 7 7 7 7 6 6 6 7 7 7 6 6 6 7 7 7 7 7 7 7
5 5 5 5 5 5 5 5 5 5 6 6 6 6 6 7 6 6 6 7 6 6 6 6 6 6 7 7 7 6 7 7 7 7 6 6 7 7 7 7 7 8 8
5 5 5 5 5 5 5 5 5 5 5 6 6 6 6 6 6 6 6 6 6 6 6 7 7 7 7 7 7 7 7 7 7 6 7 7 7 8 8 8 8 8 8
6 5 5 5 5 5 5 5 5 5 5 6 6 6 6 6 6 6 6 6 6 7 7 7 7 7 7 7 7 7 7 7 7 8 8 8 8 8 8 8 8 8 8
6 6 5 5 5 5 5 5 5 5 5 6 6 6 6 6 6 7 7 6 7 7 7 7 7 7 7 7 8 8 8 8 8 8 8 8 8 8 8 8 8 8 8
6 6 6 5 5 5 5 5 5 5 5 6 6 6 6 6 6 6 6 6 7 7 7 7 7 7 7 8 8 8 8 8 8 8 8 8 8 8 8 8 8 7 7
6 6 6 5 5 5 5 5 5 5 6 6 6 6 6 6 6 6 6 6 7 7 7 7 7 7 7 7 8 8 8 8 8 8 8 8 8 8 8 7 7 7 7
6 6 6 5 5 5 5 5 5 6 6 6 6 6 6 6 6 6 6 7 7 7 7 7 7 7 7 8 8 8 8 8 8 8 8 7 7 7 7 7 7 7 7
7 6 6 5 5 5 5 5 5 6 6 6 6 6 6 6 6 6 7 7 7 7 7 7 7 7 7 8 8 7 7 7 7 7 7 7 7 7 7 7 7 7 7
7 7 6 6 6 5 5 5 5 5 6 6 7 7 7 7 7 7 7 7 7 7 7 7 7 7 7 7 7 7 8 8 8 7 7 7 7 7 7 7 7 7 6
8 7 6 6 6 6 6 6 5 5 6 6 7 7 7 7 7 7 7 7 7 7 7 7 7 7 7 8 8 8 7 7 7 7 7 7 7 7 7 6 6 6 6
8 7 7 6 7 6 6 6 6 6 6 6 7 6 6 7 7 7 7 7 7 7 7 7 7 7 7 7 7 7 7 7 7 7 7 7 6 6 6 5 5 5 5
8 7 7 7 7 7 6 6 6 6 6 6 7 6 7 7 7 7 7 7 7 7 7 7 7 7 7 7 7 7 7 7 7 7 6 6 6 5 5 5 5 5 5
8 7 7 7 7 7 7 6 6 6 7 7 6 6 7 6 6 7 7 7 7 7 7 7 7 7 7 7 7 7 7 6 6 6 6 6 5 5 5 5 4 4 4
8 8 7 7 7 7 7 7 7 7 6 6 6 6 6 6 6 6 7 7 7 7 7 7 7 7 7 7 7 6 6 6 6 6 5 5 5 4 4 4 4 4 4
7 7 7 7 7 7 7 7 7 7 7 6 6 6 6 6 6 6 7 7 7 7 7 7 7 7 7 6 6 6 6 6 5 5 5 4 4 4 3 3 3 3 3
7 7 7 7 7 7 7 7 7 7 7 6 6 6 6 6 6 6 6 6 6 7 7 6 6 6 6 6 6 6 6 5 5 4 4 3 3 3 3 3 3 3 3
8 8 7 7 7 7 7 7 7 7 6 6 6 6 6 6 6 6 6 6 6 6 6 6 6 6 6 6 6 5 5 5 4 3 3 3 3 2 2 2 3 3 3
8 8 8 7 7 7 6 6 6 6 6 6 6 6 6 6 6 6 6 6 6 6 6 6 5 5 5 5 5 5 4 4 3 3 3 2 2 2 2 2 2 2 2
8 8 8 7 7 7 6 6 6 6 6 6 6 6 5 5 5 5 5 5 5 5 5 5 5 5 5 5 5 4 4 3 3 2 2 2 2 2 2 2 2 2 2
8 8 7 7 7 7 6 6 6 6 5 5 5 5 5 5 5 5 5 5 5 5 5 5 5 4 4 4 4 3 3 3 2 2 2 2 1 1 1 1 1 1 1
7 7 7 7 7 7 6 6 6 6 5 5 5 5 5 5 5 5 5 5 5 5 5 4 4 4 4 3 3 3 3 2 2 2 2 1 1 1 1 1 1 1 1
7 7 7 7 7 7 6 6 6 6 5 5 5 5 5 5 5 4 4 4 4 4 4 4 3 3 3 3 3 2 2 2 2 2 2 2 2 2 2 2 1 1 1
Height
3160 3162 3164 3166 3168 3170 3172 3174 3175 3177 3178 3180 3181 3182 3184 3185 3186 3187 3188 3188 3189 3190 3190 3190 3189 3189 3189 3189 3190 3190 3190 3191 3191 3191 3191 3191 3190 3190 3190 3190 3190 3189 3189
3161 3163 3164 3167 3169 3171 3173 3175 3177 3178 3180 3181 3182 3183 3185 3186 3187 3188 3190 3190 3191 3191 3191 3191 3190 3189 3189 3190 3190 3191 3191 3191 3192 3193 3193 3193 3192 3192 3192 3191 3191 3190 3190
3162 3164 3165 3167 3171 3173 3175 3177 3178 3179 3182 3183 3184 3185 3186 3188 3189 3190 3191 3192 3193 3193 3192 3192 3192 3192 3191 3191 3191 3192 3192 3193 3194 3194 3194 3194 3194 3193 3193 3192 3192 3192 3191
3162 3165 3167 3169 3172 3174 3176 3178 3179 3181 3182 3184 3185 3186 3187 3189 3190 3192 3192 3193 3193 3194 3193 3193 3193 3193 3193 3193 3192 3193 3193 3194 3195 3195 3195 3195 3195 3195 3194 3194 3193 3193 3192
3162 3166 3168 3170 3173 3175 3177 3179 3181 3182 3183 3184 3186 3187 3188 3190 3190 3192 3193 3194 3194 3194 3194 3194 3194 3193 3193 3194 3194 3194 3194 3194 3196 3196 3196 3197 3196 3196 3195 3195 3195 3194 3194
3163 3166 3169 3171 3174 3176 3178 3180 3181 3183 3184 3185 3187 3188 3189 3191 3192 3193 3193 3194 3194 3195 3194 3194 3194 3195 3195 3195 3194 3195 3195 3196 3197 3198 3198 3198 3198 3197 3197 3196 3196 3195 3195
3164 3167 3169 3172 3175 3177 3179 3180 3182 3184 3186 3187 3188 3189 3190 3191 3192 3193 3194 3195 3195 3195 3195 3195 3196 3196 3196 3196 3196 3197 3197 3198 3199 3199 3199 3199 3199 3198 3198 3197 3197 3197 3196
3165 3168 3170 3173 3175 3177 3179 3181 3182 3184 3185 3187 3188 3188 3189 3190 3191 3193 3193 3195 3196 3196 3196 3196 3197 3198 3198 3198 3198 3199 3199 3200 3200 3200 3200 3200 3200 3199 3199 3198 3198 3197 3197
3165 3168 3171 3173 3175 3178 3179 3181 3182 3184 3185 3186 3188 3189 3190 3190 3191 3192 3194 3195 3196 3197 3198 3198 3199 3199 3199 3199 3200 3200 3201 3201 3201 3202 3202 3201 3201 3200 3199 3199 3199 3199 3198
3164 3168 3171 3173 3176 3178 3179 3181 3182 3184 3185 3187 3188 3189 3191 3191 3192 3193 3194 3195 3196 3197 3198 3199 3199 3200 3200 3200 3201 3201 3202 3202 3202 3202 3202 3201 3201 3201 3201 3200 3200 3199 3198
3163 3167 3170 3173 3175 3178 3180 3181 3183 3184 3186 3188 3189 3190 3191 3192 3193 3194 3195 3196 3197 3198 3199 3200 3200 3201 3201 3202 3203 3203 3203 3202 3202 3202 3202 3202 3202 3202 3201 3200 3199 3198 3198
3162 3166 3169 3172 3175 3177 3179 3181 3183 3185 3186 3188 3189 3190 3192 3193 3194 3195 3196 3197 3197 3198 3199 3200 3201 3202 3202 3203 3203 3203 3203 3203 3203 3203 3203 3202 3202 3201 3200 3200 3199 3197 3196
3162 3165 3168 3171 3174 3176 3179 3181 3183 3185 3186 3188 3189 3190 3192 3193 3195 3196 3196 3197 3197 3198 3199 3200 3202 3202 3202 3203 3203 3203 3203 3203 3203 3202 3202 3201 3201 3200 3199 3198 3197 3197 3196
3161 3163 3167 3170 3173 3175 3178 3180 3182 3184 3186 3187 3189 3190 3191 3193 3194 3195 3195 3196 3197 3198 3199 3200 3201 3202 3202 3203 3202 3202 3202 3202 3201 3201 3201 3200 3200 3199 3198 3197 3196 3196 3195
3160 3163 3166 3169 3171 3174 3176 3179 3181 3183 3185 3186 3188 3189 3191 3192 3193 3194 3195 3196 3197 3198 3199 3199 3200 3200 3201 3201 3201 3201 3201 3200 3200 3200 3200 3199 3199 3198 3197 3196 3195 3194 3193
3159 3162 3165 3167 3170 3173 3175 3177 3179 3181 3183 3185 3187 3189 3190 3192 3192 3194 3195 3196 3197 3197 3198 3198 3199 3199 3200 3200 3200 3201 3200 3200 3200 3199 3199 3198 3197 3196 3195 3194 3193 3192 3191
3158 3160 3164 3167 3169 3171 3174 3176 3178 3180 3182 3183 3185 3187 3189 3190 3191 3193 3194 3195 3196 3197 3198 3198 3198 3199 3199 3200 3200 3200 3199 3199 3198 3198 3197 3196 3195 3194 3193 3192 3190 3189 3188
3156 3159 3162 3165 3168 3170 3172 3174 3177 3179 3181 3182 3184 3186 3188 3189 3190 3191 3193 3194 3195 3196 3197 3197 3197 3197 3198 3198 3198 3198 3198 3197 3197 3196 3195 3194 3193 3192 3191 3189 3188 3186 3184
3154 3157 3160 3163 3166 3168 3170 3173 3175 3177 3179 3181 3183 3185 3187 3188 3189 3190 3192 3193 3194 3195 3195 3196 3196 3196 3197 3197 3197 3196 3196 3195 3195 3194 3193 3192 3191 3190 3188 3186 3185 3183 3180
3151 3154 3158 3161 3164 3166 3168 3171 3173 3175 3178 3180 3181 3183 3186 3187 3188 3189 3190 3191 3193 3193 3194 3194 3194 3194 3194 3195 3194 3194 3193 3192 3192 3191 3191 3190 3189 3187 3185 3183 3182 3179 3176
3148 3152 3155 3158 3161 3164 3166 3168 3171 3174 3176 3177 3179 3181 3182 3184 3186 3187 3188 3189 3190 3191 3191 3192 3192 3192 3192 3192 3192 3191 3191 3190 3190 3189 3189 3187 3186 3184 3181 3179 3177 3174 3170
3147 3150 3153 3156 3158 3161 3164 3166 3168 3170 3173 3175 3176 3178 3180 3181 3182 3184 3185 3187 3188 3188 3189 3189 3190 3190 3189 3189 3189 3189 3188 3189 3188 3187 3186 3184 3183 3180 3177 3175 3172 3169 3165
3143 3147 3150 3153 3156 3158 3160 3162 3165 3167 3168 3171 3173 3175 3177 3179 3180 3181 3183 3184 3185 3186 3186 3187 3187 3187 3187 3186 3186 3187 3185 3185 3185 3185 3183 3181 3179 3177 3174 3171 3168 3164 3160
3141 3143 3146 3149 3152 3155 3157 3159 3161 3164 3167 3169 3171 3172 3174 3175 3177 3179 3180 3181 3182 3182 3183 3183 3184 3184 3184 3183 3183 3182 3182 3183 3182 3182 3181 3179 3176 3174 3170 3167 3163 3159 3154
3137 3140 3143 3146 3148 3151 3153 3156 3158 3160 3162 3164 3166 3169 3171 3172 3174 3175 3176 3177 3178 3178 3179 3180 3180 3180 3180 3179 3179 3179 3179 3179 3178 3178 3177 3176 3173 3170 3167 3162 3156 3151 3146
3132 3134 3138 3141 3144 3146 3148 3151 3154 3156 3158 3160 3163 3165 3167 3168 3170 3171 3172 3173 3174 3175 3175 3176 3176 3175 3176 3176 3176 3175 3175 3174 3173 3172 3171 3170 3167 3164 3159 3153 3148 3144 3139
Wind_Speed
17 17 17 17 16 15 14 14 15 15 15 15 15 15 14 14 13 12 10 10 12 12 12 8 9 9 9 8 8 9 9 9 10 10 11 12 12 12 13 13 13 12 13
16 18 19 18 17 16 16 15 14 14 13 13 12 11 11 11 11 11 12 12 13 13 10 8 8 6 7 7 8 8 9 9 9 10 10 10 9 10 10 11 11 11 11
18 18 20 19 17 16 16 15 14 13 13 12 10 10 10 11 11 12 14 13 12 11 9 8 6 6 7 6 8 8 9 10 10 10 10 11 11 11 10 10 10 10 10
19 19 20 20 18 17 16 16 15 14 13 12 12 12 12 11 13 12 12 11 9 9 8 7 6 7 8 10 11 9 9 10 9 10 11 9 8 9 9 10 9 9 9
21 20 20 20 18 16 15 15 15 15 14 13 12 12 13 11 11 11 10 8 7 7 9 8 7 8 7 7 8 10 9 9 10 9 8 7 8 9 10 10 11 11 12
20 20 20 20 17 15 14 13 13 12 12 12 11 11 11 11 11 9 7 6 6 6 7 8 9 9 8 9 10 11 12 12 10 9 8 8 10 11 11 11 11 11 10
20 20 19 18 16 15 13 12 11 10 10 9 10 9 9 8 7 7 5 4 4 6 7 9 10 10 11 11 11 12 12 11 11 10 10 10 10 10 10 9 9 9 9
19 19 19 18 16 14 13 12 11 10 9 9 9 9 8 8 6 5 2 3 5 8 10 11 12 12 12 13 13 14 15 14 13 11 10 9 9 9 8 7 6 5 5
21 19 18 17 16 15 13 12 11 10 10 10 10 10 9 8 6 5 5 6 9 11 13 14 13 13 13 13 13 12 12 11 10 9 8 8 6 5 4 4 4 4 4
22 20 18 17 15 14 12 11 11 10 9 8 8 8 9 8 7 7 7 8 10 11 13 13 13 12 11 11 11 10 9 8 7 6 5 4 3 3 4 4 4 5 5
23 21 19 17 15 14 13 11 10 10 10 9 9 8 8 8 8 7 6 7 8 9 11 11 11 9 9 8 8 7 6 5 4 3 3 3 4 4 5 5 6 7 9
23 21 19 17 15 13 12 11 11 11 11 10 9 9 8 7 7 7 7 8 9 9 9 9 9 8 7 6 5 5 4 3 3 3 4 5 6 6 7 9 10 10 11
20 21 20 18 17 14 12 10 9 10 10 10 10 9 9 8 8 7 7 7 6 6 6 7 7 6 5 4 3 3 3 3 4 5 6 7 8 9 10 11 12 13 14
19 20 20 19 17 16 14 13 11 9 9 9 9 9 8 8 8 7 7 6 5 4 3 3 3 4 3 3 2 2 2 3 4 6 7 8 10 11 11 12 14 15 17
20 18 18 17 15 15 15 14 12 11 9 9 9 8 8 7 7 6 6 4 4 3 3 2 1 1 1 0 0 1 3 4 6 7 9 10 11 12 13 14 14 14 14
20 19 17 17 16 15 14 14 14 12 11 10 9 8 7 7 7 7 6 5 4 4 3 3 2 2 1 2 2 3 4 6 7 9 10 11 12 12 12 12 12 13 15
19 19 17 16 15 14 14 15 14 14 14 13 11 9 8 8 8 7 7 6 5 5 4 3 3 2 2 2 2 3 5 6 8 10 11 11 11 10 11 12 14 17 19
20 18 18 17 16 16 15 14 15 15 15 14 13 12 10 10 9 9 9 7 6 5 4 4 4 3 3 3 4 5 7 9 10 11 10 10 10 10 12 14 17 18 20
18 18 17 17 16 16 16 16 15 15 15 15 13 12 11 10 10 10 8 7 6 6 5 5 4 4 4 5 6 8 9 10 10 9 9 9 10 13 15 17 19 21 23
19 19 18 17 17 17 17 17 16 16 15 15 14 13 12 11 11 10 9 8 7 7 7 6 6 7 7 7 8 10 11 11 10 8 8 9 12 14 16 19 21 23 25
21 20 18 18 18 18 16 15 15 13 14 15 15 14 13 12 12 11 11 9 8 8 8 7 7 9 9 10 11 12 12 10 8 8 10 12 14 16 19 22 25 27 29
21 20 19 17 16 16 16 16 16 15 15 16 17 16 15 14 14 13 12 11 10 10 10 9 9 10 10 11 12 12 10 9 9 10 12 13 16 19 23 26 28 30 32
24 21 19 18 17 17 18 19 18 19 18 18 17 16 15 15 15 14 13 13 12 12 11 11 10 10 11 11 11 10 9 10 11 12 13 15 19 21 25 29 31 32 34
23 23 22 21 20 19 20 20 19 17 16 14 16 17 16 16 15 14 15 15 14 14 13 12 11 11 11 11 10 10 11 12 13 14 16 19 21 24 27 30 33 34 35
25 23 22 22 23 23 23 21 20 20 19 19 20 19 19 18 17 17 17 17 17 15 14 13 13 11 11 11 12 13 14 15 16 17 18 20 22 25 28 31 34 37 39
27 27 27 26 25 26 27 25 23 21 21 21 20 20 19 19 19 19 19 19 18 17 16 15 14 13 13 13 13 14 16 17 19 21 23 24 26 28 32 36 39 40 41
Wind_Direction
160 149 141 139 137 134 127 128 129 132 130 127 125 125 122 122 119 116 112 110 107 105 108 90 91 95 93 95 100 98 101 98 91 88 81 75 79 75 75 74 72 67 65
160 149 141 139 138 134 131 127 130 134 133 130 130 128 126 124 119 113 109 107 104 97 93 88 77 72 78 96 102 100 100 100 94 89 85 79 81 78 73 69 69 68 64
160 148 142 136 135 133 131 128 129 132 130 130 132 133 123 117 122 117 113 109 101 91 83 75 81 85 83 95 110 112 110 104 99 96 90 80 75 74 69 68 66 65 62
153 145 140 136 134 133 133 131 126 124 125 129 128 127 122 122 119 123 117 107 95 81 74 81 94 93 93 102 99 115 115 113 106 101 97 89 65 61 65 64 62 60 56
149 147 142 135 134 136 135 132 130 129 126 123 121 124 123 124 120 125 118 108 87 84 76 77 91 92 100 105 106 113 116 122 125 109 98 79 71 64 64 64 60 59 57
151 151 147 142 142 145 141 137 135 130 130 132 131 134 131 135 136 126 114 98 75 60 64 85 91 102 110 107 110 113 112 113 114 101 87 78 77 74 69 65 62 60 57
153 155 150 147 154 154 150 149 148 147 149 151 148 146 142 142 143 143 149 122 83 79 95 98 105 107 102 106 110 110 108 106 100 95 91 84 79 74 69 64 57 51 47
155 155 156 156 158 157 155 156 155 158 161 159 161 166 172 168 175 171 171 106 112 110 107 107 109 108 106 102 101 102 101 100 98 93 89 81 70 63 59 56 52 47 38
156 155 155 156 156 156 156 154 152 153 157 159 164 168 173 178 182 176 159 134 118 116 120 121 118 113 108 106 106 109 104 99 94 88 78 71 69 64 54 40 25 16 10
161 160 155 151 149 148 150 150 154 154 151 153 157 159 163 161 161 154 140 128 126 127 125 128 127 125 118 113 110 106 101 98 93 88 84 74 54 31 13 359 350 341 339
168 167 162 157 153 150 148 147 149 149 151 152 150 153 155 154 150 144 136 128 123 125 128 124 119 115 109 104 105 107 104 101 93 77 51 21 1 350 339 329 326 330 333
175 170 166 167 164 157 152 153 152 150 149 148 147 147 147 142 143 140 137 134 132 132 128 124 124 125 125 125 128 123 105 71 37 11 353 340 330 323 321 324 326 324 323
177 174 173 175 172 170 165 163 159 156 151 151 149 151 148 144 144 142 143 145 147 145 138 132 131 130 130 122 97 66 41 10 348 335 325 317 315 317 319 321 321 320 319
178 174 177 180 183 182 178 179 179 173 165 161 156 151 147 148 147 151 155 160 153 137 124 110 104 108 108 103 84 34 350 329 317 312 311 313 315 314 315 317 323 328 332
180 175 176 178 183 182 182 184 188 190 184 175 170 166 159 161 160 165 166 162 150 150 150 144 146 151 103 92 315 291 301 303 304 308 312 315 318 321 325 330 334 334 332
180 180 182 181 185 188 186 188 191 193 192 190 186 184 176 176 180 185 182 179 179 182 189 198 219 244 263 299 315 317 316 315 317 320 320 321 323 327 328 330 331 329 327
182 183 186 188 191 193 194 193 193 196 196 199 195 196 192 189 193 193 197 195 200 205 213 226 235 257 283 300 303 306 314 319 321 322 323 323 324 325 326 326 326 326 326
184 183 188 190 192 197 199 199 198 199 199 201 202 200 199 200 200 203 204 202 208 216 222 229 234 242 251 275 304 313 314 318 320 320 319 318 320 322 324 323 323 325 327
182 185 190 191 194 197 198 199 202 203 202 205 205 204 207 204 207 211 209 208 218 223 229 233 239 254 269 281 295 305 310 312 313 311 311 313 317 321 322 324 326 326 326
184 187 189 193 197 196 199 200 202 204 205 207 210 210 209 209 212 213 215 218 221 226 232 236 246 260 273 284 295 304 305 306 304 305 309 314 318 319 319 321 325 325 324
191 192 194 197 198 201 201 203 204 206 207 210 214 215 214 212 214 215 221 225 230 236 245 254 260 269 280 290 298 300 299 298 300 306 311 312 313 318 319 322 324 324 324
199 200 201 200 202 201 201 200 200 200 206 210 215 216 215 214 217 220 226 230 235 241 248 256 265 274 284 291 293 292 292 294 297 300 304 307 311 315 318 322 323 321 320
206 206 207 208 207 205 206 209 208 209 211 215 218 216 215 216 221 222 228 234 240 247 254 260 266 274 282 288 289 286 286 287 290 293 299 303 306 312 315 318 318 318 318
209 212 212 213 213 213 215 213 214 215 215 225 227 223 222 223 226 228 235 240 245 249 255 263 268 274 282 286 288 285 282 282 286 290 294 298 305 309 313 316 315 315 317
219 220 220 220 219 219 222 221 218 220 215 217 225 227 227 230 231 233 238 242 246 252 258 262 269 277 282 286 285 281 281 283 286 288 289 292 299 306 310 313 315 318 321
219 221 222 223 224 225 228 225 223 223 224 223 229 233 235 235 237 237 240 243 248 253 258 269 277 283 284 282 280 280 282 286 289 292 294 297 302 306 312 316 316 316 316